Location: Écuvilly
(49.6505°N, 2.9206°E)
Time: 18:23:08
(UTC+00:00)

PSLV R/B - Pass Details

Date: 17 November 2025
Orbit: 561 x 589 km, 98.0° (Epoch: 10 December)

Event Time Altitude Azimuth Distance (km) Brightness Sun altitude
Rises 17:47:18 0° 152° (SSE) 2,760 6.7 -16.7°
Reaches altitude 10° 17:49:28 10° 148° (SSE) 1,864 5.8 -17.0°
Maximum altitude 17:53:23 54° 72° (ENE) 689 3.4 -17.7°
Drops below altitude 10° 17:57:20 10° 354° (N) 1,868 6.0 -18.3°
Sets 17:59:31 0° 350° (N) 2,767 6.9 -18.7°
